Change the Weather History Date:

Friday, March 15, 2013

  Actual Average Record
Temperature  
Mean Temperature 36 °F -  
Max Temperature 43 °F 45 °F 80 °F (2012)
Min Temperature 30 °F 27 °F 8 °F (1993)
Degree Days  
Heating Degree Days 28    
Moisture  
Dew Point 29 °F    
Average Humidity 72    
Maximum Humidity 87    
Minimum Humidity 52    
Precipitation  
Precipitation 0.08 in - - ()
Sea Level Pressure  
Sea Level Pressure 29.92 in    
Wind  
Wind Speed 8 mph (WNW)    
Max Wind Speed 13 mph    
Max Gust Speed -    
Visibility 6 miles    
Events Rain    
Averages and records for this station are not official NWS values.
T = Trace of Precipitation, MM = Missing Value Source: NWS Daily Summary

Daily Weather History Graph

Daily Weather History Graph

Search for Another Location

Airport or City:

Trip Planner

Search our weather history database for the weather conditions in past years. The results will help you decide how hot, cold, wet, or windy it might be!

Date:

Astronomy

Mar. 15, 2013 Rise Set
Actual Time 7:45 AM EDT 7:40 PM EDT
Civil Twilight 7:17 AM EDT 8:08 PM EDT
Nautical Twilight 6:45 AM EDT 8:41 PM EDT
Astronomical Twilight 6:12 AM EDT 9:14 PM EDT
Moon 9:30 AM EDT (3/15) 11:59 PM EDT (3/15)
Length of Visible Light 12h 51m
Length of Day
11h 55m
Waxing Crescent, 15% of the Moon is Illuminated
Mar 15
Waxing Crescent
Mar 19
First Quarter
Mar 27
Full
Apr 3
Last Quarter
Apr 10
New

Hourly Weather History & Observations

Time (EDT) Temp. Windchill Dew Point Humidity Pressure Visibility Wind Dir Wind Speed Gust Speed Precip Events Conditions
12:53 AM 30.0 °F 23.2 °F 19.9 °F 66% 30.08 in 10.0 mi WSW 6.9 mph - N/A   Partly Cloudy
1:53 AM 36.0 °F 28.0 °F 19.9 °F 52% 30.06 in 10.0 mi WSW 11.5 mph - N/A   Overcast
2:53 AM 36.0 °F 29.6 °F 19.9 °F 52% 30.04 in 10.0 mi WSW 8.1 mph - N/A   Overcast
3:53 AM 34.0 °F 26.6 °F 21.9 °F 61% 30.01 in 10.0 mi WSW 9.2 mph - N/A   Scattered Clouds
4:53 AM 33.1 °F 26.9 °F 24.1 °F 70% 29.99 in 10.0 mi WSW 6.9 mph - N/A   Clear
5:53 AM 35.1 °F 26.9 °F 26.1 °F 70% 29.97 in 10.0 mi West 11.5 mph - N/A   Mostly Cloudy
6:53 AM 36.0 °F 28.0 °F 27.0 °F 70% 29.95 in 10.0 mi WSW 11.5 mph - N/A   Overcast
7:53 AM 36.0 °F 28.0 °F 28.0 °F 73% 29.93 in 9.0 mi WSW 11.5 mph - N/A   Overcast
8:53 AM 37.0 °F 29.3 °F 28.0 °F 70% 29.94 in 7.0 mi West 11.5 mph - N/A   Overcast
9:53 AM 37.9 °F 30.0 °F 28.0 °F 68% 29.93 in 8.0 mi West 12.7 mph - N/A   Overcast
10:53 AM 39.0 °F 32.8 °F 28.9 °F 67% 29.91 in 7.0 mi WNW 9.2 mph - N/A   Overcast
11:53 AM 39.9 °F 33.9 °F 28.0 °F 63% 29.91 in 8.0 mi West 9.2 mph - N/A   Overcast
12:53 PM 39.9 °F 32.9 °F 28.9 °F 65% 29.92 in 7.0 mi West 11.5 mph - N/A   Overcast
1:53 PM 42.1 °F 36.1 °F 30.0 °F 62% 29.91 in 7.0 mi West 10.4 mph - N/A   Overcast
2:53 PM 43.0 °F 38.2 °F 30.0 °F 60% 29.88 in 8.0 mi West 8.1 mph - N/A   Overcast
3:53 PM 43.0 °F 37.7 °F 30.0 °F 60% 29.87 in 8.0 mi West 9.2 mph - N/A   Overcast
4:20 PM 42.8 °F 37.0 °F 30.2 °F 61% 29.86 in 7.0 mi West 10.4 mph - N/A   Overcast
4:53 PM 42.1 °F 38.4 °F 32.0 °F 67% 29.87 in 6.0 mi West 5.8 mph - 0.00 in   Haze
5:53 PM 41.0 °F 36.4 °F 32.0 °F 70% 29.88 in 5.0 mi NW 6.9 mph - 0.00 in Rain Light Rain
6:40 PM 39.2 °F 35.0 °F 33.8 °F 81% 29.87 in 3.0 mi North 5.8 mph - 0.01 in Rain Light Rain
6:46 PM 39.2 °F 35.0 °F 33.8 °F 81% 29.87 in 2.5 mi North 5.8 mph - 0.01 in Rain Light Rain
6:53 PM 39.0 °F 34.8 °F 34.0 °F 82% 29.88 in 3.0 mi North 5.8 mph - 0.02 in Rain Light Rain
7:41 PM 37.4 °F 33.8 °F 33.8 °F 87% 29.87 in 4.0 mi NNE 4.6 mph - 0.01 in Rain Light Rain
7:53 PM 37.9 °F 35.5 °F 33.1 °F 83% 29.89 in 4.0 mi North 3.5 mph - 0.01 in Rain Light Rain
8:09 PM 37.4 °F 33.8 °F 33.8 °F 87% 29.87 in 4.0 mi North 4.6 mph - 0.00 in Rain Light Rain
8:53 PM 37.0 °F 34.5 °F 33.1 °F 86% 29.88 in 3.0 mi North 3.5 mph - 0.02 in Rain Light Rain
9:53 PM 37.0 °F 34.5 °F 33.1 °F 86% 29.88 in 3.0 mi NNE 3.5 mph - 0.01 in Rain Light Rain
10:21 PM 37.4 °F 34.9 °F 33.8 °F 87% 29.87 in 2.5 mi NNE 3.5 mph - 0.01 in Rain Light Rain
10:53 PM 36.0 °F 33.3 °F 32.0 °F 86% 29.87 in 2.0 mi ENE 3.5 mph - 0.01 in Rain Light Rain
11:15 PM 37.4 °F 34.9 °F 32.0 °F 81% 29.86 in 2.0 mi ENE 3.5 mph - 0.01 in   Overcast
11:53 PM 37.0 °F 34.5 °F 33.1 °F 86% 29.85 in 1.8 mi East 3.5 mph - 0.01 in   Overcast